Weather reports worldwide

Advertisment
Ramstein, Germany (10614): temperature & dewpoint: 10.08.2018 13:00:00 - 16.08.2018 13:00:00 (CEST)Ramstein, Germany (10614): wind speed: 10.08.2018 13:00:00 - 16.08.2018 13:00:00 (CEST)Ramstein, Germany (10614): wind direction: 10.08.2018 13:00:00 - 16.08.2018 13:00:00 (CEST)Ramstein, Germany (10614): reduced air pressure: 10.08.2018 13:00:00 - 16.08.2018 13:00:00 (CEST)Ramstein, Germany (10614): visibility: 10.08.2018 13:00:00 - 16.08.2018 13:00:00 (CEST)Ramstein, Germany (10614): precipitation: 10.08.2018 13:00:00 - 16.08.2018 13:00:00 (CEST)
Date & Time tt [°C] td [°C] ff [km/h] ff [kn] dd ppp [hPa] vv [km] rr [mm]
16.08.2018 13:00:00 26,2 15,5 8 4 W 1016,2 10 0,0
16.08.2018 12:00:00 25,3 15,3 5 3 NNW 1016,7 10 -
16.08.2018 11:00:00 22,8 14,6 0 0 N 1017,3 10 -
16.08.2018 10:00:00 19,4 14,4 0 0 N 1017,8 10 -
16.08.2018 09:00:00 15,3 15,0 0 0 N 1018,2 10 -
16.08.2018 08:00:00 12,6 12,6 0 0 N 1018,5 10 -
16.08.2018 07:00:00 10,1 10,1 0 0 N 1018,6 10 -
16.08.2018 06:00:00 8,8 8,8 0 0 N 1018,6 10 -
16.08.2018 05:00:00 8,8 8,8 0 0 N 1018,9 10 -
16.08.2018 04:00:00 10,0 10,0 0 0 N 1019,2 10 -
16.08.2018 03:00:00 10,1 10,1 0 0 N 1019,5 10 -
16.08.2018 02:00:00 10,8 10,8 0 0 N 1019,9 10 -
16.08.2018 01:00:00 11,8 11,8 0 0 N 1019,8 10 -
16.08.2018 00:00:00 11,8 11,8 0 0 N 1019,8 10 -
15.08.2018 23:00:00 13,3 13,3 0 0 N 1019,8 10 -
15.08.2018 22:00:00 14,5 14,5 0 0 N 1019,9 10 -
15.08.2018 21:00:00 17,6 16,1 0 0 N 1019,5 10 -
15.08.2018 20:00:00 21,5 15,3 0 0 N 1019,4 10 -
15.08.2018 19:00:00 22,2 12,2 0 0 N 1019,8 10 -
15.08.2018 18:00:00 23,3 12,6 8 4 NNW 1019,8 10 -
15.08.2018 17:00:00 22,7 12,9 9 5 W 1020,2 10 -
15.08.2018 16:00:00 23,2 12,8 11 6 W 1020,1 10 -
15.08.2018 15:00:00 23,0 13,2 11 6 WSW 1020,9 10 -
15.08.2018 14:00:00 21,8 13,2 16 9 WSW 1020,8 10 -
15.08.2018 13:00:00 21,8 13,4 9 5 WSW 1020,8 10 -
15.08.2018 12:00:00 21,1 14,7 9 5 W 1020,8 10 -
15.08.2018 11:00:00 20,5 16,7 5 3 SW 1021,1 10 -
15.08.2018 10:00:00 16,7 16,5 0 0 N 1020,9 10 -
15.08.2018 09:00:00 15,2 15,2 0 0 N 1020,9 10 -
15.08.2018 08:00:00 14,0 14,0 0 0 N 1020,4 10 -
15.08.2018 07:00:00 12,3 12,3 0 0 N 1020,2 10 -
15.08.2018 06:00:00 10,6 10,6 0 0 N 1019,8 5 -
15.08.2018 05:00:00 11,3 11,3 0 0 N 1019,8 10 -
15.08.2018 04:00:00 12,4 12,4 0 0 N 1019,5 10 -
15.08.2018 03:00:00 12,2 12,2 0 0 N 1019,5 10 -
15.08.2018 02:00:00 13,9 13,9 0 0 N 1019,3 10 -
15.08.2018 01:00:00 13,5 13,5 0 0 N 1019,7 10 -
15.08.2018 00:00:00 14,5 14,5 0 0 N 1019,4 10 -
14.08.2018 23:00:00 14,8 14,6 0 0 N 1019,1 10 -
14.08.2018 22:00:00 16,9 15,2 0 0 N 1018,7 10 -
14.08.2018 21:00:00 19,9 14,5 8 4 WSW 1017,9 10 -
14.08.2018 20:00:00 21,8 14,2 9 5 SW 1017,2 10 -
14.08.2018 19:00:00 22,5 14,1 16 9 W 1016,9 10 -
14.08.2018 18:00:00 23,6 14,0 22 12 WSW 1016,9 10 -
14.08.2018 17:00:00 23,5 13,9 24 13 W 1016,8 10 -
14.08.2018 16:00:00 22,4 14,5 21 11 W 1016,6 10 -
14.08.2018 15:00:00 23,1 14,6 22 12 WSW 1016,2 10 -
14.08.2018 14:00:00 23,7 14,4 18 10 W 1015,8 10 -
14.08.2018 13:00:00 22,5 14,1 18 10 SW 1015,4 10 -
14.08.2018 12:00:00 21,8 14,7 21 11 WSW 1015,4 10 -
14.08.2018 11:00:00 20,3 14,9 13 7 WSW 1015,4 10 -
14.08.2018 10:00:00 19,1 15,0 16 9 WSW 1015,2 10 -
14.08.2018 09:00:00 17,0 15,2 16 9 WSW 1014,9 10 -
14.08.2018 08:00:00 16,0 15,2 5 3 W 1014,5 10 -
14.08.2018 07:00:00 15,2 15,0 11 6 WSW 1013,9 10 -
14.08.2018 06:00:00 14,4 14,4 5 3 WSW 1013,2 10 -
14.08.2018 05:00:00 15,9 15,7 11 6 WSW 1012,7 10 -
14.08.2018 04:00:00 16,0 15,8 11 6 WSW 1012,6 10 -
14.08.2018 03:00:00 15,3 15,1 9 5 WSW 1012,2 10 -
14.08.2018 02:00:00 16,6 15,1 8 4 WSW 1012,6 10 -
14.08.2018 01:00:00 17,1 14,7 8 4 SW 1011,9 10 -
14.08.2018 00:00:00 18,2 13,9 8 4 SW 1011,2 10 -
13.08.2018 23:00:00 19,0 14,0 8 4 SW 1011,1 10 -
13.08.2018 22:00:00 19,2 14,2 8 4 SW 1010,8 10 -
13.08.2018 21:00:00 20,0 14,6 18 10 WNW 1010,1 10 -
13.08.2018 20:00:00 21,9 14,8 8 4 SSW 1009,2 10 -
13.08.2018 19:00:00 21,9 14,8 16 9 SW 1008,8 10 -
13.08.2018 18:00:00 24,0 14,9 16 9 SW 1008,8 10 -
13.08.2018 17:00:00 23,7 17,3 15 8 WSW 1008,8 10 -
13.08.2018 16:00:00 20,2 19,0 13 7 SSW 1009,4 10 2,0
13.08.2018 15:00:00 20,0 18,8 13 7 SW 1010,2 6 -
13.08.2018 14:00:00 19,2 19,2 13 7 SSW 1010,5 10 1,5
13.08.2018 13:00:00 18,5 18,5 11 6 SW 1010,8 8 6,1
13.08.2018 12:00:00 18,9 18,9 11 6 S 1010,4 8 0,3
13.08.2018 11:00:00 18,9 18,9 13 7 SSW 1010,3 8 0,8
13.08.2018 10:00:00 18,2 18,2 8 4 SSW 1010,3 8 0,8
13.08.2018 09:00:00 18,0 18,0 11 6 SW 1010,1 10 0,3
13.08.2018 08:00:00 14,6 14,4 9 5 WSW 1009,6 10 0,8
13.08.2018 07:00:00 13,5 12,7 0 0 N 1007,9 10 -
13.08.2018 06:00:00 12,3 12,0 5 3 ENE 1008,0 10 -
13.08.2018 05:00:00 12,3 11,8 0 0 N 1008,3 10 -
13.08.2018 04:00:00 11,6 11,4 0 0 N 1009,0 10 -
13.08.2018 03:00:00 10,4 10,2 0 0 N 1009,8 10 -
13.08.2018 02:00:00 11,4 11,2 0 0 N 1010,1 10 -
13.08.2018 01:00:00 11,0 10,8 0 0 N 1010,9 10 -
13.08.2018 00:00:00 13,1 11,8 0 0 N 1010,8 10 -
12.08.2018 23:00:00 14,8 12,3 0 0 N 1011,1 10 -
12.08.2018 22:00:00 16,1 12,4 0 0 N 1011,3 10 -
12.08.2018 21:00:00 19,6 13,1 0 0 N 1011,3 10 -
12.08.2018 20:00:00 27,6 7,9 0 0 N 1011,1 10 -
12.08.2018 19:00:00 27,8 7,6 9 5 W 1012,0 10 -
12.08.2018 18:00:00 28,5 6,5 9 5 WSW 1012,7 10 -
12.08.2018 17:00:00 28,8 6,8 13 7 WSW 1013,4 10 -
12.08.2018 16:00:00 28,3 7,5 15 8 SW 1014,1 10 -
12.08.2018 15:00:00 27,2 8,1 5 3 S 1015,1 10 -
12.08.2018 14:00:00 26,0 7,5 15 8 SSW 1015,8 10 -
12.08.2018 13:00:00 25,0 7,6 13 7 SSE 1016,8 10 0,0
12.08.2018 12:00:00 23,9 8,7 9 5 ENE 1017,1 10 -
12.08.2018 11:00:00 22,7 8,0 8 4 NE 1017,8 10 -
12.08.2018 10:00:00 18,2 9,8 0 0 N 1018,6 10 -
12.08.2018 09:00:00 13,6 9,6 0 0 N 1019,2 10 -
12.08.2018 08:00:00 10,3 9,7 0 0 N 1019,3 10 -
12.08.2018 07:00:00 6,8 6,7 0 0 N 1019,7 10 -
12.08.2018 06:00:00 5,1 5,1 0 0 N 1020,1 10 -
12.08.2018 05:00:00 5,0 4,9 0 0 N 1020,8 10 -
12.08.2018 04:00:00 6,6 6,5 0 0 N 1021,1 10 -
12.08.2018 03:00:00 6,8 6,7 0 0 N 1021,4 10 -
12.08.2018 02:00:00 7,9 7,8 0 0 N 1021,7 10 -
12.08.2018 01:00:00 8,6 8,4 0 0 N 1022,1 10 -
12.08.2018 00:00:00 10,1 9,8 0 0 N 1022,3 10 -
11.08.2018 23:00:00 11,2 9,6 0 0 N 1022,3 10 -
11.08.2018 22:00:00 13,6 9,2 0 0 N 1022,3 10 0,0
11.08.2018 21:00:00 19,7 7,7 0 0 N 1021,8 10 -
11.08.2018 20:00:00 21,4 6,5 13 7 W 1021,8 10 -
11.08.2018 19:00:00 22,8 6,1 16 9 W 1022,2 10 -
11.08.2018 18:00:00 23,6 5,9 15 8 W 1022,2 10 -
11.08.2018 17:00:00 23,5 5,4 15 8 WSW 1022,5 10 -
11.08.2018 16:00:00 23,8 6,1 22 12 WSW 1022,8 10 -
11.08.2018 15:00:00 23,6 6,4 24 13 W 1023,2 10 -
11.08.2018 14:00:00 22,7 7,6 21 11 WSW 1023,6 10 -
11.08.2018 13:00:00 21,6 9,1 16 9 WSW 1023,6 10 -
11.08.2018 12:00:00 21,1 10,0 21 11 WSW 1024,2 10 -
11.08.2018 11:00:00 20,1 10,8 21 11 WNW 1023,9 10 -
11.08.2018 10:00:00 18,7 10,8 13 7 WSW 1023,9 10 -
11.08.2018 09:00:00 16,1 10,2 8 4 W 1023,8 10 -
11.08.2018 08:00:00 14,4 10,8 0 0 N 1023,8 10 -
11.08.2018 07:00:00 11,5 10,7 0 0 N 1023,2 10 -
11.08.2018 06:00:00 10,3 9,8 0 0 N 1022,9 10 -
11.08.2018 05:00:00 11,1 10,6 0 0 N 1022,9 10 -
11.08.2018 04:00:00 11,3 10,7 0 0 N 1022,6 10 -
11.08.2018 03:00:00 9,8 9,6 0 0 N 1022,9 10 -
11.08.2018 02:00:00 10,6 10,4 0 0 N 1022,9 10 -
11.08.2018 01:00:00 12,4 10,3 0 0 N 1023,3 10 -
11.08.2018 00:00:00 14,1 12,1 0 0 N 1023,2 10 -
10.08.2018 23:00:00 13,4 10,7 0 0 N 1023,0 10 -
10.08.2018 22:00:00 14,6 10,8 0 0 N 1023,0 10 -
10.08.2018 21:00:00 19,5 8,5 0 0 N 1022,5 10 -
10.08.2018 20:00:00 21,0 6,9 15 8 WNW 1022,1 10 -
10.08.2018 19:00:00 22,3 7,7 15 8 WSW 1022,1 10 -
10.08.2018 18:00:00 22,8 7,3 15 8 SSW 1022,5 10 -
10.08.2018 17:00:00 23,4 7,9 15 8 SW 1022,8 10 -
10.08.2018 16:00:00 22,2 7,9 18 10 WSW 1023,1 10 -
10.08.2018 15:00:00 23,5 7,6 13 7 SSW 1023,4 10 -
10.08.2018 14:00:00 22,5 9,6 13 7 SSW 1023,7 10 -
10.08.2018 13:00:00 19,6 10,8 16 9 W 1024,1 10 -

tt = temperature
td = dewpoint
ff = wind speed
dd = wind direction
ppp = reduced air pressure
vv = visibility
rr = precipitation

Next stations